Find Local Weather

World > North America > United States > Georgia

Cleveland, Georgia Regional Weather

Lat: 34.60N, Lon: 83.76W
Wx Zone: GAZ016
Warning FLW WEATHER ALERT - (More Info. Click Here) Warning
Feedback
Expires:201808171200;;198141
ASUS42 KFFC 171110
RWRGA 
WEATHER ROUNDUP FOR GEORGIA
NATIONAL WEATHER SERVICE PEACHTREE CITY GA
700 AM EDT FRI AUG 17 2018

NOTE: "FAIR" INDICATES FEW OR NO CLOUDS BELOW 12,000 FEET WITH NO
SIGNIFICANT WEATHER AND/OR OBSTRUCTIONS TO VISIBILITY. 

* = USE WITH CAUTION. THE STATIONS MARKED WITH AN ASTERISK MAY NOT
REPORT WEATHER SUCH AS PRECIPITATION, FOG, OR THUNDER AND ARE NOT 
QUALITY CONTROLLED BY NWS.

THE REMARK "TC" DENOTES TEMPERATURE READING IN DEGREES CELSIUS.


GAZ001>058-171200-
NORTH GEORGIA
  
CITY           SKY/WX    TMP DP  RH WIND       PRES   REMARKS
ATLANTA        CLOUDY    74  70  87 SW5       30.20R                  
ATHENS         FAIR      72  71  97 VRB3      30.19R                  
CHAMBLEE       CLOUDY    73  71  93 SW5       30.19S                  
PEACHTREE CITY CLOUDY    73  71  93 CALM      30.20S                  
ROME           CLOUDY    73  71  93 SW3       30.16S                  
WEST ATLANTA   MOCLDY    74  73  97 CALM      30.19S                  
GAINESVILLE    MOCLDY    73  72  96 SW3       30.21R                  
CARTERSVILLE   FAIR      71  71 100 CALM      30.19R                  

  
CITY           SKY/WX    TMP DP  RH WIND       PRES   REMARKS
DALTON*        CLOUDY    72  72 100 S5        30.19R                  
LAWRENCEVILLE* MOCLDY    73  72  96 SW6       30.20R                  
MARIETTA       CLOUDY    74  70  89 SW5       30.19S                  
KENNESAW*      FAIR      74  71  91 S3        30.20R                  
CANTON*        CLOUDY    73  70  88 CALM      30.21S                  
BLAIRSVILLE*   CLOUDY    66  66  99 CALM      30.23S FOG              
$$


SKY/WX - Weather  TMP - Temperature  DP - Dewpoint  RH - Relative Humidity
WIND - Wind Direction/Speed PRES - Barometric Pressure